This is the latest recevied weather packets stored in our database for station/object DC4AT. If no packets are shown the sender has not sent any weather packets the latest 10 day(s).
| Time | Temp. | Humidity | Pressure | Rain* | Wind** | Luminosity | Snow |
|---|---|---|---|---|---|---|---|
| 1787491670 | 17.78° C | 57% | 1023.1 hPa | 0 mm | - | 179 W/m² | - |
| 1787491070 | 17.22° C | 57% | 1023.1 hPa | 0 mm | - | 255 W/m² | - |
| 1787490470 | 17.22° C | 59% | 1023.1 hPa | 0 mm | - | 202 W/m² | - |
| 1787489870 | 17.22° C | 58% | 1023 hPa | 0 mm | - | 181 W/m² | - |
| 1787489270 | 17.78° C | 58% | 1023.1 hPa | 0 mm | - | 288 W/m² | - |
| 1787488670 | 17.22° C | 58% | 1023.1 hPa | 0 mm | - | 255 W/m² | - |
| 1787488070 | 17.22° C | 57% | 1023.1 hPa | 0 mm | - | 362 W/m² | - |
| 1787487470 | 17.78° C | 58% | 1023.1 hPa | 0 mm | - | 260 W/m² | - |
| 1787486870 | 17.78° C | 58% | 1023.1 hPa | 0 mm | - | 253 W/m² | - |
| 1787486270 | 17.78° C | 58% | 1023.1 hPa | 0 mm | - | 390 W/m² | - |
| 1787485670 | 17.22° C | 60% | 1023 hPa | 0 mm | - | 686 W/m² | - |
| 1787485070 | 16.67° C | 63% | 1023.1 hPa | 0 mm | - | 341 W/m² | - |
| 1787484470 | 16.11° C | 64% | 1023.2 hPa | 0 mm | - | 244 W/m² | - |
| 1787483870 | 16.11° C | 65% | 1023.3 hPa | 0 mm | - | 151 W/m² | - |
| 1787483270 | 16.67° C | 64% | 1023.3 hPa | 0 mm | - | 104 W/m² | - |
| 1787482670 | 16.67° C | 63% | 1023 hPa | 0 mm | - | 116 W/m² | - |
| 1787482070 | 17.22° C | 64% | 1023 hPa | 0 mm | - | 788 W/m² | - |
| 1787481470 | 16.11° C | 66% | 1023 hPa | 0 mm | - | 805 W/m² | - |
| 1787480870 | 16.11° C | 67% | 1023.2 hPa | 0 mm | - | 216 W/m² | - |
| 1787480270 | 16.11° C | 66% | 1023.2 hPa | 0 mm | - | 174 W/m² | - |
| 1787479670 | 15.56° C | 69% | 1023.2 hPa | 0 mm | - | 353 W/m² | - |
| 1787479070 | 15.56° C | 70% | 1023.2 hPa | 0 mm | - | 257 W/m² | - |
| 1787478470 | 15.56° C | 68% | 1023.2 hPa | 0 mm | - | 262 W/m² | - |
| 1787477870 | 15.56° C | 67% | 1023.1 hPa | 0 mm | - | 385 W/m² | - |
| 1787477270 | 15.56° C | 70% | 1023 hPa | 0 mm | - | 383 W/m² | - |
* Rain latest hour (hover to see other rain measurements)
** Current wind speed in m/s (hover to see current wind gust speed)